This is the latest recevied weather packets stored in our database for station/object NO3U. If no packets are shown the sender has not sent any weather packets the latest 10 day(s).
| Time | Temp. | Humidity | Pressure | Rain* | Wind** | Luminosity | Snow |
|---|---|---|---|---|---|---|---|
| 1777410285 | 23.33° C | 64% | 1012.6 hPa | 0 mm | - | 421 W/m² | - |
| 1777409980 | 23.33° C | 61% | 1012.6 hPa | 0 mm | - | 332 W/m² | - |
| 1777409674 | 23.89° C | 63% | 1012.6 hPa | 0 mm | - | 443 W/m² | - |
| 1777409371 | 22.78° C | 64% | 1012.8 hPa | 0 mm | - | 511 W/m² | - |
| 1777409066 | 22.78° C | 67% | 1012.8 hPa | 0 mm | - | 183 W/m² | - |
| 1777408763 | 22.78° C | 68% | 1012.8 hPa | 0 mm | - | 231 W/m² | - |
| 1777408460 | 21.67° C | 68% | 1012.8 hPa | 0 mm | - | 521 W/m² | - |
| 1777408154 | 21.67° C | 71% | 1013.1 hPa | 0 mm | - | 124 W/m² | - |
| 1777407850 | 21.67° C | 71% | 1013.1 hPa | 0 mm | - | 171 W/m² | - |
| 1777407548 | 21.11° C | 74% | 1013.1 hPa | 0 mm | - | 206 W/m² | - |
| 1777407247 | 21.11° C | 74% | 1013.2 hPa | 0 mm | - | 174 W/m² | - |
| 1777406941 | 20.56° C | 76% | 1013.4 hPa | 0 mm | - | 129 W/m² | - |
| 1777406636 | 20.56° C | 75% | 1013.3 hPa | 0 mm | - | 126 W/m² | - |
| 1777406332 | 20.56° C | 74% | 1013.5 hPa | 0 mm | - | 190 W/m² | - |
| 1777406031 | 21.11° C | 75% | 1013.5 hPa | 0 mm | - | 397 W/m² | - |
| 1777405729 | 21.11° C | 77% | 1013.4 hPa | 0 mm | - | 149 W/m² | - |
| 1777405424 | 21.11° C | 76% | 1013.6 hPa | 0 mm | - | 648 W/m² | - |
| 1777405122 | 20.56° C | 77% | 1013.7 hPa | 0 mm | - | 175 W/m² | - |
| 1777404820 | 20.56° C | 76% | 1013.8 hPa | 0 mm | - | 639 W/m² | - |
| 1777404517 | 20° C | 81% | 1013.9 hPa | 0 mm | - | 445 W/m² | - |
| 1777404213 | 20° C | 80% | 1014.1 hPa | 0 mm | - | 673 W/m² | - |
| 1777403910 | 19.44° C | 79% | 1014.1 hPa | 0 mm | - | 634 W/m² | - |
| 1777403609 | 18.89° C | 83% | 1014.1 hPa | 0 mm | - | 280 W/m² | - |
| 1777403303 | 20° C | 81% | 1014.3 hPa | 0 mm | - | 204 W/m² | - |
| 1777402999 | 18.89° C | 83% | 1014.2 hPa | 0 mm | - | 632 W/m² | - |
* Rain latest hour (hover to see other rain measurements)
** Current wind speed in m/s (hover to see current wind gust speed)